Kalamazoo, MI

9:47 AM EST on December 04, 2016 (GMT -0500)
Kalamazoo-Battle Creek International

Weather History for KAZO - October, 2012

Change the Weather History Date:

Sunday, October 7, 2012

  Actual Average Record
Temperature  
Mean Temperature 40 °F 54 °F  
Max Temperature 46 °F 64 °F 86 °F (1963)
Min Temperature 34 °F 44 °F 28 °F (2001)
Degree Days  
Heating Degree Days 25 12  
Month to date heating degree days 85 75  
Since 1 July heating degree days 240 224  
Cooling Degree Days 0 1  
Month to date cooling degree days 0 7  
Year to date cooling degree days 1048 674  
Moisture  
Dew Point 37 °F    
Average Humidity 77    
Maximum Humidity 89    
Minimum Humidity 65    
Precipitation  
Precipitation T in 0.10 in 1.91 in (1951)
Month to date precipitation 0.38 0.78  
Year to date precipitation 20.91 28.19  
Sea Level Pressure  
Sea Level Pressure 30.14 in    
Wind  
Wind Speed 4 mph (West)    
Max Wind Speed 15 mph    
Max Gust Speed 18 mph    
Visibility 10 miles    
Events Rain    
T = Trace of Precipitation, MM = Missing Value Source: NWS Daily Summary

Daily Weather History Graph

Daily Weather History Graph

Search for Another Location

Airport or City:

Trip Planner

Search our weather history database for the weather conditions in past years. The results will help you decide how hot, cold, wet, or windy it might be!

Date:

Astronomy

Oct. 07, 2012 Rise Set
Actual Time 7:46 AM EDT 7:12 PM EDT
Civil Twilight 7:18 AM EDT 7:40 PM EDT
Nautical Twilight 6:45 AM EDT 8:13 PM EDT
Astronomical Twilight 6:13 AM EDT 8:45 PM EDT
Moon No Moon Rise 2:27 PM EDT (10/7)
Length of Visible Light 12h 22m
Length of Day
11h 26m
Waning Gibbous, 56% of the Moon is Illuminated
Oct 7
Waning Gibbous
Oct 8
Last Quarter
Oct 15
New
Oct 21
First Quarter
Oct 29
Full

Hourly Weather History & Observations

Time (EDT) Temp. Windchill Dew Point Humidity Pressure Visibility Wind Dir Wind Speed Gust Speed Precip Events Conditions
12:53 AM 42.1 °F 38.4 °F 37.9 °F 85% 30.14 in 10.0 mi SW 5.8 mph - N/A   Overcast
1:53 AM 42.1 °F 39.2 °F 37.9 °F 85% 30.14 in 10.0 mi SW 4.6 mph - N/A   Overcast
2:53 AM 42.1 °F 37.7 °F 37.9 °F 85% 30.14 in 10.0 mi SW 6.9 mph - N/A   Overcast
3:53 AM 42.1 °F 40.2 °F 37.9 °F 85% 30.13 in 10.0 mi SW 3.5 mph - N/A   Overcast
4:53 AM 42.1 °F - 37.9 °F 85% 30.12 in 10.0 mi Calm Calm - N/A   Overcast
5:53 AM 42.1 °F - 39.0 °F 89% 30.12 in 10.0 mi Calm Calm - N/A   Overcast
6:53 AM 42.1 °F - 37.9 °F 85% 30.12 in 10.0 mi Calm Calm - N/A   Overcast
7:53 AM 42.1 °F - 39.0 °F 89% 30.12 in 10.0 mi Calm Calm - N/A   Overcast
8:53 AM 42.1 °F 40.2 °F 37.9 °F 85% 30.12 in 10.0 mi North 3.5 mph - N/A   Overcast
9:53 AM 43.0 °F - 37.9 °F 82% 30.13 in 10.0 mi Calm Calm - N/A   Overcast
10:50 AM 42.8 °F 41.1 °F 37.4 °F 81% 30.12 in 10.0 mi North 3.5 mph - N/A   Overcast
10:53 AM 43.0 °F - 37.9 °F 82% 30.14 in 10.0 mi Calm Calm - N/A   Overcast
11:53 AM 44.1 °F 40.1 °F 37.9 °F 79% 30.14 in 10.0 mi North 6.9 mph - 0.00 in   Overcast
12:53 PM 44.1 °F - 37.0 °F 76% 30.15 in 4.0 mi Calm Calm - 0.00 in Rain Light Rain
1:42 PM 42.8 °F 39.3 °F 39.2 °F 87% 30.13 in 4.0 mi WNW 5.8 mph - 0.00 in Rain Light Rain
1:53 PM 42.1 °F 38.4 °F 39.0 °F 89% 30.15 in 7.0 mi NW 5.8 mph - 0.00 in Rain Light Rain
2:49 PM 44.6 °F 42.2 °F 41.0 °F 87% 30.11 in 10.0 mi Variable 4.6 mph - 0.00 in   Mostly Cloudy
2:53 PM 45.0 °F 42.6 °F 39.9 °F 82% 30.13 in 10.0 mi WNW 4.6 mph - 0.00 in   Mostly Cloudy
3:18 PM 44.6 °F 41.4 °F 39.2 °F 81% 30.11 in 10.0 mi WNW 5.8 mph - N/A   Overcast
3:51 PM 44.6 °F 39.7 °F 37.4 °F 76% 30.11 in 10.0 mi WNW 9.2 mph 17.3 mph N/A   Overcast
3:53 PM 44.1 °F 38.6 °F 37.0 °F 76% 30.13 in 10.0 mi WNW 10.4 mph - 0.00 in Rain Light Rain
4:18 PM 46.4 °F 41.1 °F 39.2 °F 76% 30.11 in 10.0 mi NW 11.5 mph - 0.00 in   Overcast
4:53 PM 46.0 °F 41.0 °F 36.0 °F 68% 30.13 in 10.0 mi NW 10.4 mph - 0.00 in   Overcast
5:53 PM 44.1 °F 41.5 °F 37.0 °F 76% 30.14 in 10.0 mi West 4.6 mph - 0.00 in   Overcast
6:53 PM 44.1 °F 40.8 °F 34.0 °F 68% 30.15 in 10.0 mi West 5.8 mph - N/A   Mostly Cloudy
7:53 PM 42.1 °F 39.2 °F 32.0 °F 67% 30.15 in 10.0 mi SW 4.6 mph - N/A   Mostly Cloudy
8:53 PM 41.0 °F 39.0 °F 34.0 °F 76% 30.16 in 10.0 mi WSW 3.5 mph - N/A   Overcast
9:53 PM 41.0 °F 39.0 °F 34.0 °F 76% 30.18 in 10.0 mi SW 3.5 mph - N/A   Overcast
10:53 PM 39.9 °F 36.7 °F 33.1 °F 77% 30.18 in 10.0 mi SW 4.6 mph - N/A   Overcast
11:53 PM 39.0 °F - 32.0 °F 76% 30.17 in 10.0 mi Calm Calm - N/A   Scattered Clouds